,,,PA_Meas_PMT16A,,PR_Meas_QMR101_102,,RH_Meas_QMH101,,SR_Meas_QMS101,,TA_Meas_QMH101,,GenWind,,GenWind,
date,time,status,PA,status,PR,status,RH,status,SR,status,TA,status,DirAvg,status,SpdAvg,
2009-07-02, 00:00:04,VALID,1010.76,VALID,0,VALID,90.2279,VALID,0.105969,VALID,22.7961,VALID,58,VALID,0,
2009-07-02, 00:01:04,VALID,1010.75,VALID,0,VALID,90.2432,VALID,0.105969,VALID,22.7961,VALID,58,VALID,0,
2009-07-02, 00:02:04,VALID,1010.74,VALID,0,VALID,90.266,VALID,0.105969,VALID,22.7766,VALID,57,VALID,0,
2009-07-02, 00:03:04,VALID,1010.75,VALID,0,VALID,90.2355,VALID,0.105969,VALID,22.7961,VALID,47,VALID,0,
2009-07-02, 00:04:04,VALID,1010.77,VALID,0,VALID,90.2432,VALID,0.105969,VALID,22.7749,VALID,47,VALID,0,
2009-07-02, 00:05:04,VALID,1010.75,VALID,0,VALID,90.266,VALID,0.105969,VALID,22.7961,VALID,47,VALID,0,
2009-07-02, 00:06:04,VALID,1010.77,VALID,0,VALID,90.2508,VALID,0.105969,VALID,22.7749,VALID,47,VALID,0,
2009-07-02, 00:07:04,VALID,1010.75,VALID,0,VALID,90.2508,VALID,0.105969,VALID,22.7961,VALID,64,VALID,0,
2009-07-02, 00:08:04,VALID,1010.75,VALID,0,VALID,90.2508,VALID,0.105969,VALID,22.7961,VALID,64,VALID,0.167187,
2009-07-02, 00:09:04,VALID,1010.72,VALID,0,VALID,90.266,VALID,0.105969,VALID,22.7766,VALID,62,VALID,0.766797,
2009-07-02, 00:10:04,VALID,1010.72,VALID,0,VALID,90.2508,VALID,0,VALID,22.7961,VALID,47,VALID,0.341406,
2009-07-02, 00:11:04,VALID,1010.72,VALID,0,VALID,90.2584,VALID,0,VALID,22.7766,VALID,51,VALID,0.410156,
2009-07-02, 00:12:04,VALID,1010.71,VALID,0,VALID,90.2737,VALID,0.105969,VALID,22.7766,VALID,51,VALID,0.144531,
2009-07-02, 00:13:04,VALID,1010.7,VALID,0,VALID,90.266,VALID,0.105969,VALID,22.7766,VALID,51,VALID,0.417188,
2009-07-02, 00:14:04,VALID,1010.69,VALID,0,VALID,90.2813,VALID,0.105969,VALID,22.7571,VALID,51,VALID,0.121484,
2009-07-02, 00:15:04,VALID,1010.69,VALID,0,VALID,90.2889,VALID,0,VALID,22.7783,VALID,51,VALID,0.317969,
2009-07-02, 00:16:04,VALID,1010.66,VALID,0,VALID,90.2508,VALID,0,VALID,22.7588,VALID,51,VALID,0.261328,
2009-07-02, 00:17:04,VALID,1010.65,VALID,0,VALID,90.2813,VALID,0,VALID,22.7783,VALID,58,VALID,0,
2009-07-02, 00:18:04,VALID,1010.65,VALID,0,VALID,90.266,VALID,0,VALID,22.7588,VALID,49,VALID,0.477734,
2009-07-02, 00:19:04,VALID,1010.64,VALID,0,VALID,90.266,VALID,0,VALID,22.7588,VALID,50,VALID,0.65625,
2009-07-02, 00:20:04,VALID,1010.64,VALID,0,VALID,90.2584,VALID,0,VALID,22.7783,VALID,80,VALID,0.611719,
2009-07-02, 00:21:04,VALID,1010.62,VALID,0,VALID,90.2584,VALID,0,VALID,22.7783,VALID,64,VALID,0.872266,
2009-07-02, 00:22:04,VALID,1010.59,VALID,0,VALID,90.2889,VALID,0,VALID,22.7783,VALID,62,VALID,0.497266,
2009-07-02, 00:23:04,VALID,1010.53,VALID,0,VALID,90.2737,VALID,0,VALID,22.7571,VALID,56,VALID,0.567969,
2009-07-02, 00:24:04,VALID,1010.51,VALID,0,VALID,90.266,VALID,0,VALID,22.7978,VALID,45,VALID,0.862109,
2009-07-02, 00:25:04,VALID,1010.5,VALID,0,VALID,90.2737,VALID,0,VALID,22.7978,VALID,41,VALID,0.588672,
2009-07-02, 00:26:04,VALID,1010.48,VALID,0,VALID,90.266,VALID,0,VALID,22.819,VALID,36,VALID,0.404687,
2009-07-02, 00:27:04,VALID,1010.47,VALID,0,VALID,90.2737,VALID,0,VALID,22.7978,VALID,30,VALID,0.324609,
2009-07-02, 00:28:04,VALID,1010.48,VALID,0,VALID,90.266,VALID,0,VALID,22.819,VALID,18,VALID,0.385938,
2009-07-02, 00:29:04,VALID,1010.48,VALID,0,VALID,90.2813,VALID,0,VALID,22.819,VALID,30,VALID,0.509375,
2009-07-02, 00:30:04,VALID,1010.48,VALID,0,VALID,90.2813,VALID,0,VALID,22.7978,VALID,17,VALID,0,
2009-07-02, 00:31:04,VALID,1010.49,VALID,0,VALID,90.2737,VALID,0,VALID,22.7978,VALID,17,VALID,0,
2009-07-02, 00:32:04,VALID,1010.44,VALID,0,VALID,90.2737,VALID,0,VALID,22.7766,VALID,11,VALID,0,
2009-07-02, 00:33:04,VALID,1010.4,VALID,0,VALID,90.2508,VALID,0,VALID,22.7766,VALID,348,VALID,0.490234,
2009-07-02, 00:34:04,VALID,1010.37,VALID,0,VALID,90.2737,VALID,0,VALID,22.7571,VALID,348,VALID,0.295312,
2009-07-02, 00:35:04,VALID,1010.34,VALID,0,VALID,90.2889,VALID,0,VALID,22.7376,VALID,347,VALID,0.274609,
2009-07-02, 00:36:04,VALID,1010.3,VALID,0,VALID,90.266,VALID,0,VALID,22.7182,VALID,346,VALID,0.145703,
2009-07-02, 00:37:04,VALID,1010.26,VALID,0,VALID,90.2737,VALID,0.105969,VALID,22.7182,VALID,339,VALID,0.197266,
2009-07-02, 00:38:04,VALID,1010.28,VALID,0,VALID,90.2965,VALID,0.105969,VALID,22.7182,VALID,339,VALID,0.277734,
2009-07-02, 00:39:04,VALID,1010.31,VALID,0,VALID,90.3118,VALID,0.105969,VALID,22.6987,VALID,339,VALID,0.110156,
2009-07-02, 00:40:04,VALID,1010.31,VALID,0,VALID,90.2965,VALID,0.105969,VALID,22.6792,VALID,339,VALID,0.000390625,
2009-07-02, 00:41:04,VALID,1010.3,VALID,0,VALID,90.2965,VALID,0.105969,VALID,22.6597,VALID,339,VALID,0.0121094,
2009-07-02, 00:42:04,VALID,1010.33,VALID,0,VALID,90.3118,VALID,0,VALID,22.6614,VALID,339,VALID,0.01875,
2009-07-02, 00:43:04,VALID,1010.33,VALID,0,VALID,90.2813,VALID,0.105969,VALID,22.6402,VALID,339,VALID,0,
2009-07-02, 00:44:04,VALID,1010.35,VALID,0,VALID,90.3118,VALID,0.105969,VALID,22.6208,VALID,339,VALID,0,
2009-07-02, 00:45:04,VALID,1010.38,VALID,0,VALID,90.2889,VALID,0,VALID,22.6225,VALID,95,VALID,0.671484,
2009-07-02, 00:46:04,VALID,1010.36,VALID,0,VALID,90.2965,VALID,0,VALID,22.6826,VALID,85,VALID,0.584375,
2009-07-02, 00:47:04,VALID,1010.34,VALID,0,VALID,90.266,VALID,0,VALID,22.6614,VALID,103,VALID,0.514453,
2009-07-02, 00:48:04,VALID,1010.37,VALID,0,VALID,90.2737,VALID,0,VALID,22.6809,VALID,96,VALID,0.623047,
2009-07-02, 00:49:04,VALID,1010.34,VALID,0,VALID,90.266,VALID,0,VALID,22.6809,VALID,106,VALID,0.629687,
2009-07-02, 00:50:04,VALID,1010.34,VALID,0,VALID,90.2737,VALID,0,VALID,22.7199,VALID,93,VALID,0.65,
2009-07-02, 00:51:04,VALID,1010.31,VALID,0,VALID,90.2737,VALID,0,VALID,22.7199,VALID,90,VALID,0.638672,
2009-07-02, 00:52:04,VALID,1010.31,VALID,0,VALID,90.266,VALID,0,VALID,22.7394,VALID,76,VALID,0.467187,
2009-07-02, 00:53:04,VALID,1010.27,VALID,0,VALID,90.2737,VALID,0,VALID,22.7783,VALID,53,VALID,0.384375,
2009-07-02, 00:54:04,VALID,1010.25,VALID,0,VALID,90.266,VALID,0,VALID,22.7995,VALID,73,VALID,0.61875,
2009-07-02, 00:55:04,VALID,1010.26,VALID,0,VALID,90.2737,VALID,0,VALID,22.7783,VALID,73,VALID,0.475391,
2009-07-02, 00:56:04,VALID,1010.22,VALID,0,VALID,90.2813,VALID,0,VALID,22.7995,VALID,55,VALID,0.194922,
2009-07-02, 00:57:04,VALID,1010.21,VALID,0,VALID,90.2889,VALID,0,VALID,22.7783,VALID,55,VALID,0,
2009-07-02, 00:58:04,VALID,1010.21,VALID,0,VALID,90.2965,VALID,0,VALID,22.7783,VALID,55,VALID,0,
2009-07-02, 00:59:04,VALID,1010.17,VALID,0,VALID,90.2813,VALID,0,VALID,22.7588,VALID,49,VALID,0.208594,
2009-07-02, 01:00:04,VALID,1010.16,VALID,0,VALID,90.2965,VALID,0,VALID,22.7588,VALID,43,VALID,0.0859375,
2009-07-02, 01:01:04,VALID,1010.16,VALID,0,VALID,90.3042,VALID,0,VALID,22.7394,VALID,43,VALID,0,
2009-07-02, 01:02:04,VALID,1010.14,VALID,0,VALID,90.2889,VALID,0,VALID,22.7394,VALID,43,VALID,0,
2009-07-02, 01:03:04,VALID,1010.13,VALID,0,VALID,90.3042,VALID,0,VALID,22.7394,VALID,43,VALID,0,
2009-07-02, 01:04:04,VALID,1010.14,VALID,0,VALID,90.3042,VALID,0,VALID,22.7199,VALID,43,VALID,0,
2009-07-02, 01:05:04,VALID,1010.1,VALID,0,VALID,90.2889,VALID,0,VALID,22.7004,VALID,43,VALID,0,
2009-07-02, 01:06:04,VALID,1010.11,VALID,0,VALID,90.2889,VALID,0,VALID,22.6809,VALID,43,VALID,0,
2009-07-02, 01:07:04,VALID,1010.1,VALID,0,VALID,90.3042,VALID,0,VALID,22.6809,VALID,43,VALID,0,
2009-07-02, 01:08:04,VALID,1010.1,VALID,0,VALID,90.3042,VALID,0,VALID,22.6809,VALID,43,VALID,0,
2009-07-02, 01:09:04,VALID,1010.08,VALID,0,VALID,90.2965,VALID,0,VALID,22.6614,VALID,43,VALID,0,
2009-07-02, 01:10:04,VALID,1010.05,VALID,0,VALID,90.3042,VALID,0,VALID,22.6826,VALID,43,VALID,0.403906,
2009-07-02, 01:11:04,VALID,1010.04,VALID,0,VALID,90.2965,VALID,0,VALID,22.642,VALID,43,VALID,0.250391,
2009-07-02, 01:12:04,VALID,1010.03,VALID,0,VALID,90.2965,VALID,0,VALID,22.642,VALID,43,VALID,0,
2009-07-02, 01:13:04,VALID,1010.01,VALID,0,VALID,90.3118,VALID,0,VALID,22.642,VALID,43,VALID,0,
2009-07-02, 01:14:04,VALID,1010,VALID,0,VALID,90.2889,VALID,0,VALID,22.642,VALID,43,VALID,0,
2009-07-02, 01:15:04,VALID,1009.97,VALID,0,VALID,90.2813,VALID,0.105969,VALID,22.6402,VALID,43,VALID,0,
2009-07-02, 01:16:04,VALID,1009.96,VALID,0,VALID,90.2737,VALID,0,VALID,22.6402,VALID,43,VALID,0,
2009-07-02, 01:17:04,VALID,1009.94,VALID,0,VALID,90.2889,VALID,0,VALID,22.6402,VALID,43,VALID,0.114063,
2009-07-02, 01:18:04,VALID,1009.93,VALID,0,VALID,90.2889,VALID,0.105969,VALID,22.6614,VALID,43,VALID,0.312891,
2009-07-02, 01:19:04,VALID,1009.93,VALID,0,VALID,90.2889,VALID,0,VALID,22.6597,VALID,43,VALID,0.413672,
2009-07-02, 01:20:04,VALID,1009.95,VALID,0,VALID,90.2889,VALID,0,VALID,22.6597,VALID,43,VALID,0.4375,
2009-07-02, 01:21:04,VALID,1009.92,VALID,0,VALID,90.2813,VALID,0,VALID,22.6792,VALID,54,VALID,0.573828,
2009-07-02, 01:22:04,VALID,1009.93,VALID,0,VALID,90.2889,VALID,0,VALID,22.6792,VALID,79,VALID,0.399219,
2009-07-02, 01:23:04,VALID,1009.91,VALID,0,VALID,90.2813,VALID,0.105969,VALID,22.7004,VALID,79,VALID,0.363672,
2009-07-02, 01:24:04,VALID,1009.92,VALID,0,VALID,90.266,VALID,0,VALID,22.6987,VALID,80,VALID,0.559766,
2009-07-02, 01:25:04,VALID,1009.86,VALID,0,VALID,90.2737,VALID,0,VALID,22.6987,VALID,80,VALID,0.165234,
2009-07-02, 01:26:04,VALID,1009.87,VALID,0,VALID,90.2965,VALID,0.105969,VALID,22.6987,VALID,80,VALID,0.223438,
2009-07-02, 01:27:04,VALID,1009.84,VALID,0,VALID,90.2813,VALID,0,VALID,22.7199,VALID,80,VALID,0.164844,
2009-07-02, 01:28:04,VALID,1009.8,VALID,0,VALID,90.2889,VALID,0,VALID,22.7004,VALID,80,VALID,0.186719,
2009-07-02, 01:29:04,VALID,1009.77,VALID,0,VALID,90.2889,VALID,0,VALID,22.7182,VALID,80,VALID,0.268359,
2009-07-02, 01:30:04,VALID,1009.75,VALID,0,VALID,90.2737,VALID,0,VALID,22.7394,VALID,80,VALID,0.230078,
2009-07-02, 01:31:04,VALID,1009.72,VALID,0,VALID,90.2737,VALID,0.105969,VALID,22.6987,VALID,80,VALID,0.201562,
2009-07-02, 01:32:04,VALID,1009.7,VALID,0,VALID,90.3042,VALID,0.105969,VALID,22.7182,VALID,80,VALID,0.391016,
2009-07-02, 01:33:04,VALID,1009.66,VALID,0,VALID,90.2813,VALID,0.105969,VALID,22.6775,VALID,80,VALID,0.369141,
2009-07-02, 01:34:04,VALID,1009.62,VALID,0,VALID,90.2889,VALID,0.105969,VALID,22.6987,VALID,58,VALID,0.36875,
2009-07-02, 01:35:04,VALID,1009.62,VALID,0,VALID,90.2889,VALID,0.105969,VALID,22.7182,VALID,58,VALID,0,
2009-07-02, 01:36:04,VALID,1009.56,VALID,0,VALID,90.2737,VALID,0.105969,VALID,22.7182,VALID,58,VALID,0,
2009-07-02, 01:37:04,VALID,1009.53,VALID,0,VALID,90.2889,VALID,0.105969,VALID,22.6987,VALID,76,VALID,0.255078,
2009-07-02, 01:38:04,VALID,1009.51,VALID,0,VALID,90.3042,VALID,0.105969,VALID,22.7182,VALID,76,VALID,0,
2009-07-02, 01:39:04,VALID,1009.49,VALID,0,VALID,90.2737,VALID,0.105969,VALID,22.7199,VALID,76,VALID,0,
2009-07-02, 01:40:04,VALID,1009.48,VALID,0,VALID,90.2889,VALID,0,VALID,22.6987,VALID,76,VALID,0,
2009-07-02, 01:41:04,VALID,1009.47,VALID,0,VALID,90.2889,VALID,0.105969,VALID,22.7182,VALID,76,VALID,0,
2009-07-02, 01:42:04,VALID,1009.44,VALID,0,VALID,90.2889,VALID,0.105969,VALID,22.7182,VALID,76,VALID,0.190625,
2009-07-02, 01:43:04,VALID,1009.42,VALID,0,VALID,90.3118,VALID,0,VALID,22.6987,VALID,76,VALID,0,
2009-07-02, 01:44:04,VALID,1009.4,VALID,0,VALID,90.2889,VALID,0.105969,VALID,22.6987,VALID,76,VALID,0,
2009-07-02, 01:45:04,VALID,1009.42,VALID,0,VALID,90.2965,VALID,0,VALID,22.6809,VALID,76,VALID,0,
2009-07-02, 01:46:04,VALID,1009.39,VALID,0,VALID,90.2813,VALID,0,VALID,22.7004,VALID,76,VALID,0,
2009-07-02, 01:47:04,VALID,1009.39,VALID,0,VALID,90.2889,VALID,0,VALID,22.7004,VALID,76,VALID,0,
2009-07-02, 01:48:04,VALID,1009.41,VALID,0,VALID,90.2889,VALID,0,VALID,22.7004,VALID,76,VALID,0,
2009-07-02, 01:49:04,VALID,1009.41,VALID,0,VALID,90.2813,VALID,0,VALID,22.6987,VALID,76,VALID,0,
2009-07-02, 01:50:04,VALID,1009.42,VALID,0,VALID,90.2813,VALID,0,VALID,22.7199,VALID,76,VALID,0,
2009-07-02, 01:51:04,VALID,1009.43,VALID,0,VALID,90.2889,VALID,0,VALID,22.7004,VALID,76,VALID,0,
2009-07-02, 01:52:04,VALID,1009.43,VALID,0,VALID,90.2889,VALID,0,VALID,22.7004,VALID,76,VALID,0,
2009-07-02, 01:53:04,VALID,1009.43,VALID,0,VALID,90.2965,VALID,0,VALID,22.6809,VALID,76,VALID,0,
2009-07-02, 01:54:04,VALID,1009.42,VALID,0,VALID,90.2965,VALID,0,VALID,22.6809,VALID,76,VALID,0,
2009-07-02, 01:55:04,VALID,1009.41,VALID,0,VALID,90.3118,VALID,0,VALID,22.6614,VALID,76,VALID,0,
2009-07-02, 01:56:04,VALID,1009.4,VALID,0,VALID,90.3042,VALID,0,VALID,22.6826,VALID,76,VALID,0,
2009-07-02, 01:57:04,VALID,1009.39,VALID,0,VALID,90.3194,VALID,0,VALID,22.6614,VALID,76,VALID,0,
2009-07-02, 01:58:04,VALID,1009.36,VALID,0,VALID,90.2965,VALID,0,VALID,22.642,VALID,76,VALID,0,
2009-07-02, 01:59:04,VALID,1009.36,VALID,0,VALID,90.2965,VALID,0,VALID,22.642,VALID,76,VALID,0,
2009-07-02, 02:00:04,VALID,1009.38,VALID,0,VALID,90.3194,VALID,0,VALID,22.6225,VALID,76,VALID,0,
2009-07-02, 02:01:04,VALID,1009.36,VALID,0,VALID,90.3042,VALID,0,VALID,22.6225,VALID,76,VALID,0,
2009-07-02, 02:02:04,VALID,1009.33,VALID,0,VALID,90.2965,VALID,0,VALID,22.642,VALID,76,VALID,0,
2009-07-02, 02:03:04,VALID,1009.33,VALID,0,VALID,90.2889,VALID,0,VALID,22.603,VALID,76,VALID,0,
2009-07-02, 02:04:04,VALID,1009.28,VALID,0,VALID,90.3194,VALID,0,VALID,22.603,VALID,76,VALID,0,
2009-07-02, 02:05:04,VALID,1009.28,VALID,0,VALID,90.3194,VALID,0,VALID,22.6225,VALID,76,VALID,0,
2009-07-02, 02:06:04,VALID,1009.25,VALID,0,VALID,90.3118,VALID,0,VALID,22.642,VALID,76,VALID,0,
2009-07-02, 02:07:04,VALID,1009.23,VALID,0,VALID,90.266,VALID,0,VALID,22.642,VALID,76,VALID,0,
2009-07-02, 02:08:04,VALID,1009.2,VALID,0,VALID,90.2737,VALID,0,VALID,22.6614,VALID,76,VALID,0,
2009-07-02, 02:09:04,VALID,1009.19,VALID,0,VALID,90.2813,VALID,0,VALID,22.6614,VALID,76,VALID,0,
2009-07-02, 02:10:04,VALID,1009.17,VALID,0,VALID,90.3042,VALID,0,VALID,22.6225,VALID,76,VALID,0,
2009-07-02, 02:11:04,VALID,1009.19,VALID,0,VALID,90.3118,VALID,0,VALID,22.564,VALID,76,VALID,0,
2009-07-02, 02:12:04,VALID,1009.21,VALID,0,VALID,90.3194,VALID,0,VALID,22.564,VALID,76,VALID,0,
2009-07-02, 02:13:04,VALID,1009.22,VALID,0,VALID,90.3118,VALID,0,VALID,22.5835,VALID,76,VALID,0,
2009-07-02, 02:14:04,VALID,1009.22,VALID,0,VALID,90.3042,VALID,0,VALID,22.603,VALID,76,VALID,0,
2009-07-02, 02:15:04,VALID,1009.25,VALID,0,VALID,90.266,VALID,0,VALID,22.6225,VALID,76,VALID,0,
2009-07-02, 02:16:04,VALID,1009.25,VALID,0,VALID,90.2737,VALID,0,VALID,22.642,VALID,76,VALID,0,
2009-07-02, 02:17:04,VALID,1009.27,VALID,0,VALID,90.2889,VALID,0,VALID,22.642,VALID,43,VALID,0,
2009-07-02, 02:18:04,VALID,1009.29,VALID,0,VALID,90.2813,VALID,0,VALID,22.6614,VALID,43,VALID,0,
2009-07-02, 02:19:04,VALID,1009.29,VALID,0,VALID,90.3042,VALID,0,VALID,22.6809,VALID,43,VALID,0,
2009-07-02, 02:20:04,VALID,1009.3,VALID,0,VALID,90.2737,VALID,0,VALID,22.6614,VALID,43,VALID,0,
2009-07-02, 02:21:04,VALID,1009.29,VALID,0,VALID,90.2737,VALID,0,VALID,22.6809,VALID,43,VALID,0,
2009-07-02, 02:22:04,VALID,1009.31,VALID,0,VALID,90.2737,VALID,0,VALID,22.6809,VALID,43,VALID,0,
2009-07-02, 02:23:04,VALID,1009.34,VALID,0,VALID,90.2889,VALID,0,VALID,22.6809,VALID,43,VALID,0,
2009-07-02, 02:24:04,VALID,1009.31,VALID,0,VALID,90.2889,VALID,0,VALID,22.6809,VALID,43,VALID,0,
2009-07-02, 02:25:04,VALID,1009.33,VALID,0,VALID,90.2813,VALID,0,VALID,22.6809,VALID,43,VALID,0,
2009-07-02, 02:26:04,VALID,1009.31,VALID,0,VALID,90.2965,VALID,0,VALID,22.6809,VALID,43,VALID,0,
2009-07-02, 02:27:04,VALID,1009.31,VALID,0,VALID,90.2889,VALID,0,VALID,22.6809,VALID,43,VALID,0,
2009-07-02, 02:28:04,VALID,1009.32,VALID,0,VALID,90.3118,VALID,0,VALID,22.6013,VALID,43,VALID,0,
2009-07-02, 02:29:04,VALID,1009.33,VALID,0,VALID,90.3194,VALID,0,VALID,22.6437,VALID,43,VALID,0,
2009-07-02, 02:30:04,VALID,1009.33,VALID,0,VALID,90.3042,VALID,0,VALID,22.642,VALID,43,VALID,0,
2009-07-02, 02:31:04,VALID,1009.31,VALID,0,VALID,90.3118,VALID,0,VALID,22.642,VALID,43,VALID,0,
2009-07-02, 02:32:04,VALID,1009.32,VALID,0,VALID,90.3042,VALID,0,VALID,22.6013,VALID,43,VALID,0,
2009-07-02, 02:33:04,VALID,1009.29,VALID,0,VALID,90.3576,VALID,0,VALID,22.5039,VALID,100,VALID,0,
2009-07-02, 02:34:05,VALID,1009.28,VALID,0,VALID,90.3804,VALID,0,VALID,22.4667,VALID,100,VALID,0,
2009-07-02, 02:35:05,VALID,1009.24,VALID,0,VALID,90.3881,VALID,0,VALID,22.4065,VALID,100,VALID,0,
2009-07-02, 02:36:05,VALID,1009.23,VALID,0,VALID,90.3652,VALID,0,VALID,22.4065,VALID,100,VALID,0,
2009-07-02, 02:37:05,VALID,1009.19,VALID,0,VALID,90.3499,VALID,0,VALID,22.3676,VALID,100,VALID,0,
2009-07-02, 02:38:05,VALID,1009.18,VALID,0,VALID,90.3728,VALID,0,VALID,22.3481,VALID,100,VALID,0,
2009-07-02, 02:39:05,VALID,1009.19,VALID,0,VALID,90.3652,VALID,0,VALID,22.3286,VALID,100,VALID,0,
2009-07-02, 02:40:05,VALID,1009.19,VALID,0,VALID,90.3804,VALID,0.105969,VALID,22.3481,VALID,100,VALID,0,
2009-07-02, 02:41:05,VALID,1009.16,VALID,0,VALID,90.3957,VALID,0,VALID,22.3091,VALID,100,VALID,0,
2009-07-02, 02:42:05,VALID,1009.17,VALID,0,VALID,90.3576,VALID,0,VALID,22.3286,VALID,100,VALID,0,
2009-07-02, 02:43:05,VALID,1009.18,VALID,0,VALID,90.3423,VALID,0,VALID,22.3481,VALID,100,VALID,0,
2009-07-02, 02:44:05,VALID,1009.21,VALID,0,VALID,90.327,VALID,0,VALID,22.3481,VALID,100,VALID,0,
2009-07-02, 02:45:05,VALID,1009.21,VALID,0,VALID,90.3423,VALID,0,VALID,22.3498,VALID,100,VALID,0,
2009-07-02, 02:46:05,VALID,1009.19,VALID,0,VALID,90.3423,VALID,0,VALID,22.3498,VALID,100,VALID,0,
2009-07-02, 02:47:05,VALID,1009.21,VALID,0,VALID,90.3652,VALID,0,VALID,22.3904,VALID,100,VALID,0,
2009-07-02, 02:48:05,VALID,1009.19,VALID,0,VALID,90.327,VALID,0,VALID,22.4489,VALID,100,VALID,0,
2009-07-02, 02:49:05,VALID,1009.17,VALID,0,VALID,90.2889,VALID,0,VALID,22.4861,VALID,100,VALID,0,
2009-07-02, 02:50:05,VALID,1009.16,VALID,0,VALID,90.3042,VALID,0,VALID,22.5268,VALID,100,VALID,0,
2009-07-02, 02:51:05,VALID,1009.17,VALID,0,VALID,90.2813,VALID,0,VALID,22.5463,VALID,100,VALID,0,
2009-07-02, 02:52:05,VALID,1009.19,VALID,0,VALID,90.2813,VALID,0,VALID,22.5446,VALID,100,VALID,0,
2009-07-02, 02:53:05,VALID,1009.21,VALID,0,VALID,90.2737,VALID,0,VALID,22.6047,VALID,100,VALID,0,
2009-07-02, 02:54:05,VALID,1009.19,VALID,0,VALID,90.2584,VALID,0,VALID,22.6225,VALID,100,VALID,0,
2009-07-02, 02:55:05,VALID,1009.2,VALID,0,VALID,90.2737,VALID,0,VALID,22.6225,VALID,100,VALID,0,
2009-07-02, 02:56:05,VALID,1009.19,VALID,0,VALID,90.2737,VALID,0,VALID,22.603,VALID,34,VALID,0,
2009-07-02, 02:57:05,VALID,1009.2,VALID,0,VALID,90.2889,VALID,0,VALID,22.603,VALID,27,VALID,0,
2009-07-02, 02:58:05,VALID,1009.18,VALID,0,VALID,90.2889,VALID,0,VALID,22.603,VALID,25,VALID,0,
2009-07-02, 02:59:05,VALID,1009.21,VALID,0,VALID,90.2889,VALID,0,VALID,22.6242,VALID,25,VALID,0,
2009-07-02, 03:00:05,VALID,1009.2,VALID,0,VALID,90.3042,VALID,0,VALID,22.603,VALID,25,VALID,0,
2009-07-02, 03:01:05,VALID,1009.2,VALID,0,VALID,90.2965,VALID,0.105969,VALID,22.5623,VALID,25,VALID,0,
2009-07-02, 03:02:05,VALID,1009.21,VALID,0,VALID,90.3347,VALID,0.105969,VALID,22.5429,VALID,25,VALID,0,
2009-07-02, 03:03:05,VALID,1009.24,VALID,0,VALID,90.3194,VALID,0.105969,VALID,22.5429,VALID,25,VALID,0,
2009-07-02, 03:04:05,VALID,1009.25,VALID,0,VALID,90.327,VALID,0,VALID,22.5039,VALID,25,VALID,0,
2009-07-02, 03:05:05,VALID,1009.22,VALID,0,VALID,90.327,VALID,0,VALID,22.5251,VALID,25,VALID,0,
2009-07-02, 03:06:05,VALID,1009.23,VALID,0,VALID,90.3194,VALID,0,VALID,22.5234,VALID,25,VALID,0,
2009-07-02, 03:07:05,VALID,1009.24,VALID,0,VALID,90.3042,VALID,0.105969,VALID,22.5234,VALID,25,VALID,0,
2009-07-02, 03:08:05,VALID,1009.24,VALID,0,VALID,90.2965,VALID,0,VALID,22.5429,VALID,25,VALID,0,
2009-07-02, 03:09:05,VALID,1009.2,VALID,0,VALID,90.3194,VALID,0,VALID,22.5251,VALID,25,VALID,0,
2009-07-02, 03:10:05,VALID,1009.2,VALID,0,VALID,90.2965,VALID,0.105969,VALID,22.5039,VALID,340,VALID,0,
2009-07-02, 03:11:05,VALID,1009.23,VALID,0,VALID,90.3042,VALID,0,VALID,22.5039,VALID,339,VALID,0,
2009-07-02, 03:12:05,VALID,1009.24,VALID,0,VALID,90.2965,VALID,0,VALID,22.5234,VALID,339,VALID,0,
2009-07-02, 03:13:05,VALID,1009.25,VALID,0,VALID,90.2965,VALID,0,VALID,22.5234,VALID,339,VALID,0,
2009-07-02, 03:14:05,VALID,1009.25,VALID,0,VALID,90.3194,VALID,0,VALID,22.5446,VALID,339,VALID,0,
2009-07-02, 03:15:05,VALID,1009.26,VALID,0,VALID,90.3118,VALID,0,VALID,22.5446,VALID,339,VALID,0,
2009-07-02, 03:16:05,VALID,1009.24,VALID,0,VALID,90.3118,VALID,0,VALID,22.5446,VALID,339,VALID,0,
2009-07-02, 03:17:05,VALID,1009.24,VALID,0,VALID,90.3194,VALID,0,VALID,22.5234,VALID,339,VALID,0,
2009-07-02, 03:18:05,VALID,1009.21,VALID,0,VALID,90.3194,VALID,0,VALID,22.5429,VALID,339,VALID,0,
2009-07-02, 03:19:05,VALID,1009.23,VALID,0,VALID,90.3118,VALID,0,VALID,22.5446,VALID,339,VALID,0,
2009-07-02, 03:20:05,VALID,1009.22,VALID,0,VALID,90.2889,VALID,0,VALID,22.564,VALID,339,VALID,0,
2009-07-02, 03:21:05,VALID,1009.18,VALID,0,VALID,90.3118,VALID,0,VALID,22.5623,VALID,339,VALID,0,
2009-07-02, 03:22:05,VALID,1009.2,VALID,0,VALID,90.3194,VALID,0,VALID,22.5623,VALID,339,VALID,0,
2009-07-02, 03:23:05,VALID,1009.19,VALID,0,VALID,90.3118,VALID,0,VALID,22.5623,VALID,339,VALID,0,
2009-07-02, 03:24:05,VALID,1009.23,VALID,0,VALID,90.2813,VALID,0,VALID,22.603,VALID,339,VALID,0,
2009-07-02, 03:25:05,VALID,1009.23,VALID,0,VALID,90.2965,VALID,0,VALID,22.5818,VALID,339,VALID,0,
2009-07-02, 03:26:05,VALID,1009.23,VALID,0,VALID,90.2965,VALID,0,VALID,22.6225,VALID,339,VALID,0,
2009-07-02, 03:27:05,VALID,1009.23,VALID,0,VALID,90.3042,VALID,0,VALID,22.642,VALID,339,VALID,0,
2009-07-02, 03:28:05,VALID,1009.22,VALID,0,VALID,90.2889,VALID,0,VALID,22.6402,VALID,339,VALID,0,
2009-07-02, 03:29:05,VALID,1009.25,VALID,0,VALID,90.266,VALID,0,VALID,22.6402,VALID,339,VALID,0,
2009-07-02, 03:30:05,VALID,1009.24,VALID,0,VALID,90.2737,VALID,0,VALID,22.7004,VALID,339,VALID,0,
2009-07-02, 03:31:05,VALID,1009.27,VALID,0,VALID,90.2584,VALID,0,VALID,22.7199,VALID,339,VALID,0,
2009-07-02, 03:32:05,VALID,1009.27,VALID,0,VALID,90.2584,VALID,0,VALID,22.7588,VALID,339,VALID,0,
2009-07-02, 03:33:05,VALID,1009.29,VALID,0,VALID,90.2584,VALID,0,VALID,22.7571,VALID,339,VALID,0,
2009-07-02, 03:34:05,VALID,1009.29,VALID,0,VALID,90.2584,VALID,0,VALID,22.7783,VALID,339,VALID,0,
2009-07-02, 03:35:05,VALID,1009.29,VALID,0,VALID,90.2813,VALID,0,VALID,22.7783,VALID,339,VALID,0,
2009-07-02, 03:36:05,VALID,1009.3,VALID,0,VALID,90.2813,VALID,0,VALID,22.7588,VALID,339,VALID,0,
2009-07-02, 03:37:05,VALID,1009.31,VALID,0,VALID,90.2813,VALID,0,VALID,22.7588,VALID,339,VALID,0,
2009-07-02, 03:38:05,VALID,1009.28,VALID,0,VALID,90.2965,VALID,0,VALID,22.7394,VALID,339,VALID,0,
2009-07-02, 03:39:05,VALID,1009.27,VALID,0,VALID,90.2965,VALID,0,VALID,22.7199,VALID,339,VALID,0,
2009-07-02, 03:40:05,VALID,1009.26,VALID,0,VALID,90.2813,VALID,0,VALID,22.7394,VALID,339,VALID,0,
2009-07-02, 03:41:05,VALID,1009.29,VALID,0,VALID,90.2737,VALID,0,VALID,22.7394,VALID,339,VALID,0,
2009-07-02, 03:42:05,VALID,1009.28,VALID,0,VALID,90.266,VALID,0,VALID,22.7588,VALID,339,VALID,0,
2009-07-02, 03:43:05,VALID,1009.27,VALID,0,VALID,90.2965,VALID,0,VALID,22.7783,VALID,339,VALID,0,
2009-07-02, 03:44:05,VALID,1009.25,VALID,0,VALID,90.2889,VALID,0,VALID,22.7978,VALID,339,VALID,0,
2009-07-02, 03:45:05,VALID,1009.26,VALID,0,VALID,90.2889,VALID,0,VALID,22.7588,VALID,339,VALID,0,
2009-07-02, 03:46:05,VALID,1009.27,VALID,0,VALID,90.2737,VALID,0,VALID,22.7783,VALID,339,VALID,0,
2009-07-02, 03:47:05,VALID,1009.28,VALID,0,VALID,90.266,VALID,0,VALID,22.7783,VALID,339,VALID,0,
2009-07-02, 03:48:05,VALID,1009.28,VALID,0,VALID,90.2584,VALID,0,VALID,22.7978,VALID,339,VALID,0,
2009-07-02, 03:49:05,VALID,1009.31,VALID,0,VALID,90.2508,VALID,0,VALID,22.8173,VALID,339,VALID,0,
2009-07-02, 03:50:05,VALID,1009.33,VALID,0,VALID,90.2432,VALID,0,VALID,22.8368,VALID,339,VALID,0,
2009-07-02, 03:51:05,VALID,1009.34,VALID,0,VALID,90.2737,VALID,0,VALID,22.7961,VALID,339,VALID,0,
2009-07-02, 03:52:05,VALID,1009.35,VALID,0,VALID,90.2965,VALID,0,VALID,22.7961,VALID,339,VALID,0,
2009-07-02, 03:53:05,VALID,1009.36,VALID,0,VALID,90.2889,VALID,0,VALID,22.8368,VALID,339,VALID,0,
2009-07-02, 03:54:05,VALID,1009.35,VALID,0,VALID,90.2813,VALID,0,VALID,22.8368,VALID,339,VALID,0,